Miscellaneous Local Product
Issued by NWS Hastings, NE

Home | Current Version | Previous Version | Text Only | Print | Product List | Glossary Off
Versions: 1 2 3 4 5 6 7 8 9 10 11 12 13 14 15 16 17 18 19 20 21 22 23 24 25 26 27 28 29 30 31 32 33 34 35 36 37 38 39 40 41 42 43 44 45 46 47 48 49 50

000
AXUS43 KGID 202302
MISGRI

GID CWA HOURLY WEATHER ROUNDUP
NATIONAL WEATHER SERVICE HASTINGS NE
500 PM CST SAT JAN 20 2018

NOTE: "FAIR" INDICATES FEW OR NO CLOUDS BELOW 12,000 FEET WITH NO
SIGNIFICANT WEATHER AND/OR OBSTRUCTIONS TO VISIBILITY.

...SOUTH CENTRAL NEBRASKA...

CITY           SKY/WX    TMP DP  RH WIND       PRES   REMARKS
GRAND ISLAND   CLEAR     45  35  68 E9        29.80R
KEARNEY        CLEAR     43  35  73 NE10      29.79R
HASTINGS       CLEAR     45  29  53 E12       29.77S
ORD            CLOUDY    42  32  67 N14G20    29.81R
YORK           CLEAR     45  32  61 SE7       29.81R
AURORA         CLEAR     46  32  57 E8        29.79R
LEXINGTON      MOCLDY    46  32  56 NE10      29.78R
HOLDREGE       CLEAR     43  35  74 NE10      29.77R
HEBRON         CLOUDY    45  40  82 NE5       29.80S

...NEBRASKA PANHANDLE...

CITY           SKY/WX    TMP DP  RH WIND       PRES   REMARKS
CHADRON        LGT SNOW  33  32  96 NE14      29.90F FOG     WCI  23
ALLIANCE       CLOUDY    33  31  92 NE12      29.83S WCI  24
SCOTTSBLUFF    CLOUDY    35  31  85 NE10      29.84R WCI  27
SIDNEY         CLOUDY    33  29  85 N13       29.81R WCI  24

...WESTERN AND NORTH CENTRAL NEBRASKA...

CITY           SKY/WX    TMP DP  RH WIND       PRES   REMARKS
VALENTINE      CLOUDY    40  32  73 N9        29.89R WCI  34
AINSWORTH      CLOUDY    37  32  82 N6        29.87R WCI  32
ONEILL         CLOUDY    38  34  86 N7        29.86R WCI  32
BROKEN BOW     CLOUDY    40  32  73 N13       29.80R WCI  32
IMPERIAL       CLOUDY    43  30  60 NE12      29.79R
NORTH PLATTE   CLOUDY    41  30  65 NE9       29.80R
MCCOOK         MOCLDY    46  31  55 NE9       29.76R

...EASTERN NEBRASKA...

CITY           SKY/WX    TMP DP  RH WIND       PRES   REMARKS
NORFOLK        CLOUDY    60  33  36 N16       29.81R
SO SIOUX CITY  CLEAR     49  34  56 N10       29.85R
TEKAMAH        CLEAR     47  32  56 SE7       29.84R
COLUMBUS       CLEAR     48  31  51 E13       29.82S
ALBION         PTCLDY    46  33  62 N15       29.81S
OMAHA EPPLEY   PTCLDY    44  37  76 S8        29.84R
OFFUTT AFB     CLEAR     46  39  78 SE3       29.84R
MILLARD        CLOUDY    48  39  72 SE6       29.84R
LINCOLN        CLOUDY    47  39  74 SE8       29.83R
NEBRASKA CITY  CLOUDY    44  43  97 NE5       29.83R
BEATRICE       CLOUDY    43  40  88 NE5       29.82R
FALLS CITY     CLOUDY    48  42  80 SE3       29.83R

...NORTHERN KANSAS...

CITY           SKY/WX    TMP DP  RH WIND       PRES   REMARKS
GOODLAND       MOCLDY    47  28  47 NE7       29.75R
HILL CITY      CLEAR     49  25  39 NE8       29.75R
NORTON         CLEAR     45  27  49 N9        29.75R
PHILLIPSBURG   CLEAR     48  30  49 NE5       29.76R
SMITH CENTER   CLEAR     46  36  66 NE7       29.76R
BELOIT         CLEAR     55  39  54 CALM      29.74S
HAYS           CLEAR     53  22  29 NW6       29.73R
RUSSELL        CLEAR     58  39  49 SE9       29.71R
CONCORDIA      PTCLDY    50  42  74 E9        29.75S
SALINA         CLEAR     59  44  57 S8        29.74S
TOPEKA         CLOUDY    50  46  86 E6        29.82R



USA.gov is the U.S. government's official web portal to all federal, state and local government web resources and services.